NOZ4PM ENGM-ENVA

Flight info

Callsign NOZ4PM
Flight time 0h 43m
Altitude 32000
Route RIBBE DCT GIGNI DCT VEVOD
Aircraft B738/M-SDE2E3FGHIRWXY/LB1

Departure

Time 2026-04-30 21:11
Airport Oslo-Gardermoen International Airport (ENGM)

Arrival

Time 2026-04-30 21:54
Airport Trondheim Airport, Værnes (ENVA)
Time Latitude Longitude Altitude Speed Heading
2026-04-30 20:33 60.19556 11.09504 678 ft 0 kts 196°
2026-04-30 20:59 60.19567 11.09510 680 ft 2 kts 199°
2026-04-30 21:00 60.19599 11.09529 680 ft 2 kts 196°
2026-04-30 21:00 60.19612 11.09538 680 ft 0 kts 197°
2026-04-30 21:04 60.19610 11.09540 680 ft 1 kts 171°
2026-04-30 21:04 60.19611 11.09556 680 ft 1 kts 64°
2026-04-30 21:04 60.19698 11.09610 680 ft 17 kts 17°
2026-04-30 21:05 60.19832 11.09690 681 ft 21 kts 16°
2026-04-30 21:05 60.19926 11.09743 681 ft 21 kts 15°
2026-04-30 21:05 60.20060 11.09862 683 ft 14 kts 72°
2026-04-30 21:05 60.20050 11.09986 680 ft 13 kts 107°
2026-04-30 21:06 60.20014 11.10234 683 ft 15 kts 106°
2026-04-30 21:06 60.19994 11.10380 681 ft 17 kts 106°
2026-04-30 21:06 60.19959 11.10621 683 ft 19 kts 106°
2026-04-30 21:06 60.19923 11.10873 681 ft 19 kts 106°
2026-04-30 21:07 60.19885 11.11139 683 ft 21 kts 106°
2026-04-30 21:07 60.19847 11.11407 683 ft 17 kts 105°
2026-04-30 21:07 60.19888 11.11552 685 ft 13 kts 19°
2026-04-30 21:07 60.19979 11.11604 687 ft 16 kts 16°
2026-04-30 21:08 60.20081 11.11692 681 ft 15 kts 59°
2026-04-30 21:08 60.20067 11.11893 683 ft 14 kts 106°
2026-04-30 21:08 60.20055 11.11983 688 ft 0 kts 105°
2026-04-30 21:09 60.20046 11.12047 688 ft 10 kts 107°
2026-04-30 21:09 60.19991 11.12167 685 ft 12 kts 176°
2026-04-30 21:09 60.19961 11.12156 686 ft 0 kts 197°
2026-04-30 21:10 60.19936 11.12141 686 ft 17 kts 196°
2026-04-30 21:10 60.19580 11.11936 689 ft 89 kts 196°
2026-04-30 21:10 60.18774 11.11475 683 ft 149 kts 194°
2026-04-30 21:11 60.17729 11.10886 1276 ft 153 kts 195°
2026-04-30 21:11 60.16694 11.10303 1970 ft 159 kts 198°
2026-04-30 21:11 60.15550 11.09681 2284 ft 187 kts 198°
2026-04-30 21:11 60.14189 11.09076 2512 ft 215 kts 185°
2026-04-30 21:12 60.12664 11.09941 2701 ft 246 kts 148°
2026-04-30 21:12 60.11320 11.12354 3053 ft 268 kts 135°
2026-04-30 21:12 60.10051 11.15093 3752 ft 273 kts 134°
2026-04-30 21:12 60.08754 11.17911 4515 ft 276 kts 134°
2026-04-30 21:13 60.07703 11.21180 5207 ft 285 kts 109°
2026-04-30 21:13 60.07499 11.25142 5935 ft 288 kts 80°
2026-04-30 21:13 60.08197 11.28834 6658 ft 288 kts 52°
2026-04-30 21:13 60.09664 11.31514 7372 ft 285 kts 25°
2026-04-30 21:14 60.11482 11.32943 8105 ft 284 kts 13°
2026-04-30 21:14 60.13409 11.34067 8850 ft 289 kts 12°
2026-04-30 21:14 60.15350 11.35135 9613 ft 293 kts 11°
2026-04-30 21:14 60.17343 11.36227 10387 ft 297 kts 11°
2026-04-30 21:15 60.19398 11.37362 10771 ft 317 kts 11°
2026-04-30 21:15 60.21575 11.38575 10968 ft 340 kts 12°
2026-04-30 21:15 60.23912 11.39898 11401 ft 354 kts 12°
2026-04-30 21:15 60.26310 11.41276 12050 ft 360 kts 12°
2026-04-30 21:16 60.28706 11.42665 12805 ft 364 kts 12°
2026-04-30 21:16 60.31157 11.44091 13556 ft 368 kts 12°
2026-04-30 21:16 60.33649 11.45534 14302 ft 372 kts 10°
2026-04-30 21:16 60.36156 11.46309 15165 ft 364 kts 358°
2026-04-30 21:17 60.38684 11.46383 16045 ft 364 kts 355°
2026-04-30 21:17 60.41234 11.46373 16835 ft 366 kts 355°
2026-04-30 21:17 60.43801 11.46347 17569 ft 370 kts 355°
2026-04-30 21:17 60.46371 11.46331 18298 ft 374 kts 355°
2026-04-30 21:18 60.48992 11.46331 19004 ft 377 kts 355°
2026-04-30 21:18 60.51631 11.46344 19682 ft 379 kts 355°
2026-04-30 21:18 60.54252 11.46367 20329 ft 382 kts 356°
2026-04-30 21:18 60.56925 11.46397 20966 ft 386 kts 355°
2026-04-30 21:19 60.59639 11.46430 21557 ft 389 kts 355°
2026-04-30 21:19 60.62338 11.46466 22169 ft 392 kts 355°
2026-04-30 21:19 60.65103 11.46504 22798 ft 395 kts 355°
2026-04-30 21:19 60.67835 11.46544 23397 ft 398 kts 355°
2026-04-30 21:20 60.70630 11.46584 23954 ft 401 kts 355°
2026-04-30 21:20 60.73403 11.46623 24431 ft 404 kts 356°
2026-04-30 21:20 60.76233 11.46664 24951 ft 406 kts 356°
2026-04-30 21:20 60.79074 11.46706 25457 ft 407 kts 356°
2026-04-30 21:21 60.81924 11.46747 25941 ft 410 kts 356°
2026-04-30 21:21 60.84744 11.46788 26409 ft 412 kts 356°
2026-04-30 21:21 60.90553 11.46870 27252 ft 418 kts 356°
2026-04-30 21:22 60.93463 11.46911 27700 ft 420 kts 356°
2026-04-30 21:22 61.02216 11.47044 29415 ft 416 kts 356°
2026-04-30 21:23 61.05120 11.47090 30035 ft 413 kts 356°
2026-04-30 21:23 61.07958 11.47132 30550 ft 412 kts 356°
2026-04-30 21:23 61.13692 11.47214 31479 ft 410 kts 356°
2026-04-30 21:24 61.16554 11.47256 31945 ft 409 kts 356°
2026-04-30 21:24 61.19365 11.47295 32257 ft 410 kts 355°
2026-04-30 21:24 61.25077 11.47377 32265 ft 408 kts 356°
2026-04-30 21:25 61.33584 11.47500 32275 ft 409 kts 356°
2026-04-30 21:26 61.42156 11.47626 32272 ft 410 kts 356°
2026-04-30 21:27 61.50705 11.47800 32279 ft 411 kts 356°
2026-04-30 21:27 61.56438 11.47996 32274 ft 410 kts 356°
2026-04-30 21:28 61.64981 11.48288 32274 ft 410 kts 356°
2026-04-30 21:28 61.70680 11.48477 31958 ft 404 kts 356°
2026-04-30 21:29 61.73429 11.48571 31625 ft 397 kts 356°
2026-04-30 21:29 61.81618 11.48841 30388 ft 388 kts 355°
2026-04-30 21:30 61.87006 11.49014 29063 ft 387 kts 354°
2026-04-30 21:31 61.94964 11.49277 27521 ft 376 kts 354°
2026-04-30 21:31 62.00145 11.49448 26693 ft 370 kts 354°
2026-04-30 21:32 62.05200 11.49616 25955 ft 364 kts 354°
2026-04-30 21:32 62.07728 11.49700 25564 ft 361 kts 353°
2026-04-30 21:32 62.10254 11.49783 25165 ft 359 kts 353°
2026-04-30 21:32 62.12726 11.49865 24788 ft 357 kts 353°
2026-04-30 21:33 62.15220 11.49946 24419 ft 356 kts 353°
2026-04-30 21:33 62.20122 11.50109 23636 ft 352 kts 353°
2026-04-30 21:33 62.22573 11.50191 23210 ft 350 kts 353°
2026-04-30 21:34 62.25006 11.50272 22829 ft 348 kts 353°
2026-04-30 21:34 62.29798 11.50435 22082 ft 343 kts 353°
2026-04-30 21:34 62.32157 11.50515 21726 ft 341 kts 353°
2026-04-30 21:35 62.34525 11.50594 21347 ft 339 kts 353°
2026-04-30 21:35 62.36876 11.50673 21011 ft 337 kts 353°
2026-04-30 21:35 62.39221 11.50752 20640 ft 335 kts 353°
2026-04-30 21:35 62.41543 11.50829 20283 ft 334 kts 353°
2026-04-30 21:36 62.43873 11.50907 19918 ft 332 kts 353°
2026-04-30 21:36 62.46161 11.50985 19570 ft 330 kts 353°
2026-04-30 21:37 62.53020 11.51216 18507 ft 328 kts 353°
2026-04-30 21:37 62.55301 11.51293 18099 ft 327 kts 353°
2026-04-30 21:37 62.57584 11.51371 17733 ft 326 kts 353°
2026-04-30 21:37 62.59853 11.51449 17336 ft 324 kts 353°
2026-04-30 21:38 62.62076 11.51526 16992 ft 322 kts 353°
2026-04-30 21:38 62.64317 11.51605 16647 ft 320 kts 353°
2026-04-30 21:38 62.66552 11.51682 16327 ft 318 kts 353°
2026-04-30 21:38 62.68735 11.51757 15989 ft 316 kts 353°
2026-04-30 21:39 62.70935 11.51833 15647 ft 315 kts 354°
2026-04-30 21:39 62.73134 11.51908 15304 ft 314 kts 354°
2026-04-30 21:39 62.75322 11.51984 14965 ft 313 kts 354°
2026-04-30 21:39 62.77511 11.52058 14628 ft 313 kts 354°
2026-04-30 21:40 62.79659 11.52132 14284 ft 312 kts 354°
2026-04-30 21:40 62.81829 11.52208 13943 ft 310 kts 354°
2026-04-30 21:40 62.83994 11.52283 13565 ft 309 kts 354°
2026-04-30 21:40 62.86122 11.52357 13101 ft 311 kts 354°
2026-04-30 21:41 62.88301 11.52430 12676 ft 312 kts 354°
2026-04-30 21:41 62.90479 11.52506 12303 ft 310 kts 354°
2026-04-30 21:41 62.92637 11.52583 11940 ft 309 kts 355°
2026-04-30 21:41 62.94759 11.52659 11614 ft 306 kts 355°
2026-04-30 21:42 62.96893 11.52735 11285 ft 305 kts 354°
2026-04-30 21:42 62.99007 11.52811 10939 ft 302 kts 354°
2026-04-30 21:42 63.01077 11.52886 10604 ft 300 kts 354°
2026-04-30 21:42 63.03164 11.52960 10357 ft 295 kts 354°
2026-04-30 21:43 63.05201 11.53037 10222 ft 288 kts 354°
2026-04-30 21:43 63.06516 11.53085 10116 ft 283 kts 354°
2026-04-30 21:43 63.09091 11.53178 9815 ft 276 kts 354°
2026-04-30 21:43 63.11010 11.53244 9525 ft 274 kts 355°
2026-04-30 21:44 63.12916 11.53308 9236 ft 271 kts 354°
2026-04-30 21:44 63.14784 11.53372 8977 ft 270 kts 355°
2026-04-30 21:44 63.16669 11.53437 8705 ft 270 kts 355°
2026-04-30 21:44 63.18553 11.53502 8425 ft 270 kts 355°
2026-04-30 21:45 63.20437 11.53569 8143 ft 269 kts 355°
2026-04-30 21:45 63.22296 11.53634 7861 ft 269 kts 355°
2026-04-30 21:45 63.24173 11.53701 7580 ft 267 kts 356°
2026-04-30 21:45 63.26027 11.53769 7314 ft 265 kts 356°
2026-04-30 21:46 63.27875 11.53834 7077 ft 265 kts 355°
2026-04-30 21:46 63.29695 11.53900 6780 ft 264 kts 355°
2026-04-30 21:46 63.31530 11.53967 6544 ft 260 kts 355°
2026-04-30 21:46 63.33313 11.54035 6441 ft 252 kts 355°
2026-04-30 21:47 63.35037 11.54099 6328 ft 245 kts 355°
2026-04-30 21:47 63.36731 11.54161 6213 ft 239 kts 355°
2026-04-30 21:47 63.38358 11.54154 6111 ft 231 kts 348°
2026-04-30 21:47 63.39851 11.53181 5923 ft 223 kts 333°
2026-04-30 21:48 63.41314 11.51960 5679 ft 222 kts 334°
2026-04-30 21:48 63.42752 11.50815 5458 ft 219 kts 335°
2026-04-30 21:48 63.44176 11.49655 5240 ft 215 kts 330°
2026-04-30 21:48 63.45194 11.47563 5072 ft 193 kts 288°
2026-04-30 21:49 63.45414 11.44716 5039 ft 181 kts 273°
2026-04-30 21:49 63.45579 11.41973 4877 ft 180 kts 275°
2026-04-30 21:49 63.45701 11.39140 4604 ft 182 kts 271°
2026-04-30 21:49 63.45744 11.36328 4327 ft 180 kts 269°
2026-04-30 21:50 63.45754 11.33556 4059 ft 179 kts 268°
2026-04-30 21:50 63.45754 11.30767 3793 ft 178 kts 268°
2026-04-30 21:50 63.45751 11.28014 3523 ft 175 kts 269°
2026-04-30 21:50 63.45748 11.25321 3246 ft 173 kts 269°
2026-04-30 21:51 63.45745 11.22679 2974 ft 164 kts 270°
2026-04-30 21:51 63.45744 11.20182 2725 ft 157 kts 270°
2026-04-30 21:51 63.45743 11.17792 2467 ft 150 kts 270°
2026-04-30 21:51 63.45742 11.15515 2250 ft 149 kts 270°
2026-04-30 21:52 63.45742 11.13166 2056 ft 150 kts 270°
2026-04-30 21:52 63.45742 11.10789 1780 ft 153 kts 270°
2026-04-30 21:52 63.45743 11.08410 1533 ft 154 kts 270°
2026-04-30 21:52 63.45745 11.06825 1359 ft 154 kts 270°
2026-04-30 21:53 63.45745 11.03672 1037 ft 148 kts 269°
2026-04-30 21:53 63.45747 11.01366 820 ft 148 kts 268°
2026-04-30 21:53 63.45750 10.99828 681 ft 149 kts 268°
2026-04-30 21:53 63.45754 10.96711 384 ft 154 kts 268°
2026-04-30 21:54 63.45756 10.95099 241 ft 156 kts 269°
2026-04-30 21:54 63.45769 10.92687 47 ft 147 kts 269°
2026-04-30 21:54 63.45764 10.90726 33 ft 95 kts 269°
2026-04-30 21:54 63.45766 10.89630 28 ft 44 kts 270°
2026-04-30 21:55 63.45750 10.89299 28 ft 11 kts 228°
2026-04-30 21:55 63.45677 10.89267 28 ft 11 kts 179°
2026-04-30 21:55 63.45608 10.89311 28 ft 11 kts 136°
2026-04-30 21:55 63.45600 10.89501 28 ft 14 kts 89°
2026-04-30 21:56 63.45599 10.89709 28 ft 13 kts 90°
2026-04-30 21:56 63.45598 10.89927 29 ft 16 kts 91°
2026-04-30 21:56 63.45598 10.90212 31 ft 21 kts 90°
2026-04-30 21:56 63.45598 10.90571 33 ft 25 kts 90°
2026-04-30 21:57 63.45597 10.90946 34 ft 15 kts 90°
2026-04-30 21:57 63.45584 10.91121 34 ft 10 kts 128°
2026-04-30 21:57 63.45556 10.91256 36 ft 10 kts 90°
2026-04-30 21:57 63.45557 10.91406 38 ft 10 kts 89°
2026-04-30 21:58 63.45555 10.91542 38 ft 7 kts 108°
2026-04-30 21:58 63.45517 10.91583 38 ft 5 kts 173°
2026-04-30 21:58 63.45500 10.91583 36 ft 0 kts 182°